星链-2542 (STARLINK-2542 )

导读

STARLINK-2542是美国星链项目中的一颗低轨互联网卫星,于2021年4月29日发射升空,归属SpaceX公司的星链星座组网。星链星座旨在为全球提供高速低延迟互联网覆盖,该卫星加入星座后,补充了低轨通信网络节点,助力实现更广范围的全球卫星互联网服务覆盖能力。

基本信息
目录编号:
48292
目录名称:
STARLINK-2542
国际标识:
2021-036S
轨道中心:
EARTH
卫星名称:
星链-2542
卫星全名:
星链-2542 (STARLINK-2542 )
卫星状态:
在轨 (已飞行1876 天)
发射日期:
2021-04-29 UTC
国别 :
美国 (US)
星等 :
--
轨道信息
数据来源 国际轨道数据
星历时间: 2026-06-17T23:26:09+0800
1天前
查看轨道信息
半长轴: 6848.886km
偏心率: 0.0001126
轨道倾角: 53.160°
近地点辐角 85.189°
升交点赤经 330.257°
平近点角 274.924°
近地点: 469.977km
远地点: 471.521km
周期: 94.013分钟
每日圈数: 15.316971
详细信息
固有亮度:
5
最大亮度:
2.5
卫星平台:
Starlink V1.0
覆盖范围:
全球
运营商:
太空探索技术公司
运营商所在国:
美国
制造商(研发单位):
太空探索技术公司
制造商所在国:
美国
使用方式:
暂无
卫星简介
星链(Starlink)计划是由太空探索技术公司(SpaceX)提出的一个巨型低轨卫星互联网星座项目,计划在2019年至2024年间在太空搭建由约1.2万颗卫星组成的“星链”网络,其中1584颗将部署在地球上空550千米处的近地轨道,并从2020年开始工作。该卫星仍在工作。
2D轨道图
3D轨道图
轨道高度分析图
轨道倾角分析图
轨道综合分析图
查看轨道综合分析图